Location: Hawks Ness
(60.2333°N, 1.1667°W)
Time: 20:44:26
(UTC+00:00)

Cosmos 1066 Rocket - Pass Details

Date: 22 October 2019
Orbit: 799 x 894 km, 81.2° (Epoch: 17 November)

Event Time Altitude Azimuth Distance (km) Brightness Sun altitude
Exits shadow 03:23:46 83° 275° (W) 853 4.0 -27.0°
Maximum altitude 03:23:49 83° 287° (WNW) 853 4.0 -27.0°
Drops below altitude 10° 03:29:31 10° 16° (NNE) 2,499 7.2 -26.3°
Sets 03:31:59 0° 18° (NNE) 3,454 8.0 -26.1°
